Hourly Weather Otorowo

Today, 24 July, Saturday

Time Temperature Precipitation Wind Pressure Humidity
00:00 +21°C° 0 mm 1 mps 752 mmHg 63%
01:00 +21°C° 0 mm 1 mps 752 mmHg 63%
02:00 +21°C° 0 mm 1 mps 752 mmHg 63%
03:00 +20°C° 0 mm 1 mps 752 mmHg 63%
04:00 +20°C° 0 mm 1 mps 752 mmHg 63%
05:00 +20°C° 0 mm 2 mps 752 mmHg 63%
06:00 +20°C° 0 mm 2 mps 752 mmHg 62%
07:00 +21°C° 0 mm 2 mps 752 mmHg 60%
08:00 +23°C° 0 mm 2 mps 752 mmHg 56%
09:00 +24°C° 0 mm 3 mps 752 mmHg 51%
10:00 +26°C° 0 mm 3 mps 752 mmHg 46%
11:00 +26°C° 0 mm 3 mps 752 mmHg 44%
12:00 +27°C° 0 mm 3 mps 752 mmHg 42%
13:00 +28°C° 0 mm 3 mps 752 mmHg 39%
14:00 +28°C° 0 mm 3 mps 751 mmHg 39%
15:00 +28°C° 0 mm 3 mps 751 mmHg 38%
16:00 +28°C° 0 mm 3 mps 751 mmHg 38%
17:00 +27°C° 0 mm 3 mps 751 mmHg 42%
18:00 +26°C° 0 mm 3 mps 751 mmHg 46%
19:00 +25°C° 0 mm 3 mps 750 mmHg 49%
20:00 +24°C° 0 mm 3 mps 751 mmHg 54%
21:00 +21°C° 0 mm 4 mps 751 mmHg 59%
22:00 +20°C° 0 mm 4 mps 751 mmHg 64%
23:00 +19°C° 0 mm 3 mps 751 mmHg 66%

Tomorrow, 25 July, Sunday

Time Temperature Precipitation Wind Pressure Humidity
00:00 +19°C° 0 mm 3 mps 751 mmHg 69%
01:00 +18°C° 0 mm 3 mps 751 mmHg 71%
02:00 +18°C° 0 mm 3 mps 751 mmHg 73%
03:00 +17°C° 0 mm 3 mps 750 mmHg 74%
04:00 +17°C° 0 mm 3 mps 750 mmHg 76%
05:00 +19°C° 0 mm 3 mps 750 mmHg 70%
06:00 +20°C° 0 mm 4 mps 750 mmHg 64%
07:00 +22°C° 0 mm 4 mps 750 mmHg 59%
08:00 +25°C° 0 mm 4 mps 750 mmHg 54%
09:00 +27°C° 0 mm 4 mps 750 mmHg 49%
10:00 +29°C° 0 mm 4 mps 750 mmHg 44%
11:00 +29°C° 0 mm 4 mps 750 mmHg 44%
12:00 +29°C° 0 mm 3 mps 750 mmHg 43%
13:00 +30°C° 0 mm 3 mps 749 mmHg 42%
14:00 +29°C° 0 mm 4 mps 750 mmHg 46%
15:00 +28°C° 0 mm 4 mps 750 mmHg 51%
16:00 +28°C° 0 mm 5 mps 750 mmHg 55%
17:00 +26°C° 0.1 mm 4 mps 750 mmHg 60%
18:00 +25°C° 0.1 mm 3 mps 750 mmHg 66%
19:00 +24°C° 0.1 mm 2 mps 750 mmHg 71%
20:00 +23°C° 0 mm 2 mps 750 mmHg 72%
21:00 +23°C° 0 mm 2 mps 750 mmHg 72%
22:00 +21°C° 0 mm 2 mps 750 mmHg 73%
23:00 +21°C° 0 mm 2 mps 750 mmHg 74%

Day after tomorrow, 26 July, Monday

Time Temperature Precipitation Wind Pressure Humidity
00:00 +21°C° 0 mm 2 mps 750 mmHg 74%
01:00 +21°C° 0 mm 3 mps 750 mmHg 75%
02:00 +20°C° 0 mm 2 mps 750 mmHg 77%
03:00 +20°C° 0 mm 2 mps 750 mmHg 78%
04:00 +20°C° 0 mm 2 mps 749 mmHg 79%
05:00 +21°C° 0 mm 2 mps 749 mmHg 76%
06:00 +21°C° 0 mm 2 mps 749 mmHg 73%
07:00 +23°C° 0 mm 2 mps 749 mmHg 71%
08:00 +25°C° 0 mm 2 mps 749 mmHg 64%
09:00 +26°C° 0 mm 1 mps 749 mmHg 58%
10:00 +28°C° 0 mm 1 mps 749 mmHg 52%
11:00 +29°C° 0 mm 1 mps 749 mmHg 48%
12:00 +30°C° 0 mm 1 mps 749 mmHg 45%
13:00 +31°C° 0 mm 1 mps 749 mmHg 42%
14:00 +31°C° 0 mm 1 mps 749 mmHg 42%
15:00 +31°C° 0 mm 1 mps 749 mmHg 43%
16:00 +31°C° 0 mm 1 mps 749 mmHg 43%
17:00 +30°C° 0 mm 2 mps 749 mmHg 48%
18:00 +28°C° 0 mm 2 mps 749 mmHg 53%
19:00 +27°C° 0 mm 2 mps 749 mmHg 57%
20:00 +26°C° 0 mm 1 mps 749 mmHg 62%
21:00 +24°C° 0 mm 1 mps 749 mmHg 67%
22:00 +23°C° 0 mm 1 mps 750 mmHg 72%
23:00 +21°C° 0.2 mm 2 mps 750 mmHg 76%

27 July, Tuesday

Time Temperature Precipitation Wind Pressure Humidity
00:00 +21°C° 0.2 mm 3 mps 750 mmHg 80%
01:00 +20°C° 0.2 mm 4 mps 750 mmHg 85%
02:00 +20°C° 0 mm 3 mps 750 mmHg 86%
03:00 +19°C° 0 mm 3 mps 750 mmHg 87%
04:00 +19°C° 0 mm 2 mps 750 mmHg 88%
05:00 +20°C° 0 mm 2 mps 751 mmHg 82%
06:00 +21°C° 0 mm 3 mps 751 mmHg 76%
07:00 +24°C° 0 mm 3 mps 751 mmHg 70%
08:00 +25°C° 0 mm 3 mps 751 mmHg 63%
09:00 +27°C° 0 mm 4 mps 751 mmHg 56%
10:00 +28°C° 0 mm 4 mps 751 mmHg 48%
11:00 +29°C° 0 mm 4 mps 751 mmHg 44%
12:00 +30°C° 0 mm 4 mps 751 mmHg 40%
13:00 +32°C° 0 mm 4 mps 751 mmHg 35%
14:00 +32°C° 0 mm 4 mps 751 mmHg 35%
15:00 +32°C° 0 mm 4 mps 751 mmHg 34%
16:00 +32°C° 0 mm 4 mps 751 mmHg 33%
17:00 +29°C° 0 mm 3 mps 751 mmHg 38%
18:00 +28°C° 0 mm 2 mps 751 mmHg 44%
19:00 +26°C° 0 mm 2 mps 751 mmHg 49%
20:00 +26°C° 0 mm 1 mps 751 mmHg 51%
21:00 +25°C° 0 mm 1 mps 751 mmHg 53%
22:00 +24°C° 0 mm 1 mps 751 mmHg 56%
23:00 +23°C° 0 mm 1 mps 751 mmHg 59%

28 July, Wednesday

Time Temperature Precipitation Wind Pressure Humidity
00:00 +22°C° 0 mm 1 mps 751 mmHg 62%
01:00 +21°C° 0 mm 1 mps 751 mmHg 65%
02:00 +20°C° 0 mm 2 mps 751 mmHg 67%
03:00 +19°C° 0 mm 2 mps 750 mmHg 69%
04:00 +19°C° 0 mm 2 mps 750 mmHg 70%
05:00 +21°C° 0 mm 2 mps 750 mmHg 67%
06:00 +22°C° 0 mm 3 mps 750 mmHg 64%
07:00 +25°C° 0 mm 3 mps 750 mmHg 61%
08:00 +26°C° 0 mm 3 mps 750 mmHg 56%
09:00 +28°C° 0 mm 4 mps 750 mmHg 51%
10:00 +29°C° 0 mm 4 mps 750 mmHg 46%
11:00 +30°C° 0 mm 4 mps 749 mmHg 44%
12:00 +32°C° 0 mm 4 mps 749 mmHg 41%
13:00 +32°C° 0 mm 4 mps 749 mmHg 38%
14:00 +29°C° 0.2 mm 4 mps 750 mmHg 49%
15:00 +26°C° 0.2 mm 4 mps 750 mmHg 61%
16:00 +22°C° 0.2 mm 4 mps 750 mmHg 72%
17:00 +22°C° 0 mm 4 mps 750 mmHg 72%
18:00 +22°C° 0 mm 4 mps 750 mmHg 72%
19:00 +22°C° 0 mm 3 mps 750 mmHg 72%
20:00 +21°C° 0 mm 3 mps 751 mmHg 77%
21:00 +19°C° 0 mm 2 mps 751 mmHg 82%
22:00 +18°C° 0 mm 2 mps 751 mmHg 87%
23:00 +17°C° 0 mm 2 mps 751 mmHg 88%

29 July, Thursday

Time Temperature Precipitation Wind Pressure Humidity
00:00 +17°C° 0 mm 2 mps 751 mmHg 90%
01:00 +17°C° 0 mm 2 mps 751 mmHg 92%
02:00 +17°C° 0 mm 2 mps 752 mmHg 92%
03:00 +16°C° 0 mm 2 mps 752 mmHg 92%
04:00 +16°C° 0 mm 2 mps 752 mmHg 93%
05:00 +18°C° 0 mm 2 mps 752 mmHg 84%
06:00 +19°C° 0 mm 2 mps 752 mmHg 75%
07:00 +21°C° 0 mm 2 mps 752 mmHg 67%
08:00 +24°C° 0 mm 3 mps 752 mmHg 59%
09:00 +25°C° 0 mm 3 mps 752 mmHg 51%
10:00 +27°C° 0 mm 3 mps 752 mmHg 43%
11:00 +28°C° 0 mm 4 mps 751 mmHg 39%
12:00 +29°C° 0 mm 4 mps 751 mmHg 36%
13:00 +30°C° 0 mm 5 mps 751 mmHg 32%
14:00 +30°C° 0 mm 5 mps 750 mmHg 31%
15:00 +30°C° 0 mm 5 mps 750 mmHg 31%
16:00 +30°C° 0 mm 4 mps 750 mmHg 30%
17:00 +29°C° 0 mm 3 mps 749 mmHg 35%
18:00 +27°C° 0 mm 2 mps 749 mmHg 40%
19:00 +26°C° 0 mm 1 mps 749 mmHg 44%
20:00 +25°C° 0 mm 2 mps 748 mmHg 47%
21:00 +24°C° 0 mm 2 mps 748 mmHg 49%
22:00 +23°C° 0 mm 2 mps 747 mmHg 52%
23:00 +21°C° 0.6 mm 3 mps 747 mmHg 63%
Show more